Hailey, ID

2:45 AM MST on February 27, 2017 (GMT -0700)
Friedman Memorial

Weather History for KSUN - July, 2013

Change the Weather History Date:

Tuesday, July 16, 2013

  Actual Average Record
Temperature  
Mean Temperature 73 °F -  
Max Temperature 84 °F 84 °F 96 °F (2000)
Min Temperature 62 °F 53 °F 44 °F (1996)
Cooling Degree Days 8    
Growing Degree Days 23 (Base 50)    
Moisture  
Dew Point 50 °F    
Average Humidity 49    
Maximum Humidity 88    
Minimum Humidity 33    
Precipitation  
Precipitation 0.00 in - - ()
Sea Level Pressure  
Sea Level Pressure 30.07 in    
Wind  
Wind Speed 8 mph (NW)    
Max Wind Speed 21 mph    
Max Gust Speed 40 mph    
Visibility 10 miles    
Events Rain , Thunderstorm    
Averages and records for this station are not official NWS values.
T = Trace of Precipitation, MM = Missing Value Source: NWS Daily Summary

Daily Weather History Graph

Daily Weather History Graph

Search for Another Location

Airport or City:

Trip Planner

Search our weather history database for the weather conditions in past years. The results will help you decide how hot, cold, wet, or windy it might be!

Date:

Astronomy

Jul. 16, 2013 Rise Set
Actual Time 6:11 AM MDT 9:14 PM MDT
Civil Twilight 5:36 AM MDT 9:49 PM MDT
Nautical Twilight 4:52 AM MDT 10:33 PM MDT
Astronomical Twilight 4:00 AM MDT 11:25 PM MDT
Moon 2:57 PM MDT (7/16) 12:48 AM MDT (7/16)
Length of Visible Light 16h 12m
Length of Day
15h 03m
First Quarter, 57% of the Moon is Illuminated
Jul 16
First Quarter
Jul 22
Full
Jul 29
Last Quarter
Aug 6
New
Aug 14
First Quarter

Hourly Weather History & Observations

Time (MDT) Temp. Heat Index Dew Point Humidity Pressure Visibility Wind Dir Wind Speed Gust Speed Precip Events Conditions
12:15 AM 71.6 °F - 46.4 °F 41% 30.05 in 10.0 mi NW 6.9 mph - N/A   Clear
12:35 AM 71.6 °F - 46.4 °F 41% 30.04 in 10.0 mi WNW 9.2 mph - N/A   Clear
12:55 AM 71.6 °F - 46.4 °F 41% 30.04 in 10.0 mi NW 8.1 mph - N/A   Clear
1:15 AM 71.6 °F - 46.4 °F 41% 30.04 in 10.0 mi NW 6.9 mph - N/A   Clear
1:35 AM 71.6 °F - 46.4 °F 41% 30.04 in 10.0 mi NW 9.2 mph - N/A   Clear
1:55 AM 69.8 °F - 46.4 °F 43% 30.04 in 10.0 mi NW 6.9 mph - N/A   Clear
2:15 AM 69.8 °F - 46.4 °F 43% 30.04 in 10.0 mi NW 8.1 mph - N/A   Clear
2:35 AM 69.8 °F - 46.4 °F 43% 30.04 in 10.0 mi NW 10.4 mph - N/A   Clear
2:55 AM 69.8 °F - 46.4 °F 43% 30.04 in 10.0 mi WNW 8.1 mph - N/A   Clear
3:15 AM 68.0 °F - 44.6 °F 43% 30.05 in 10.0 mi NW 6.9 mph - N/A   Clear
3:35 AM 68.0 °F - 44.6 °F 43% 30.05 in 10.0 mi WNW 8.1 mph - N/A   Clear
3:55 AM 69.8 °F - 44.6 °F 40% 30.05 in 10.0 mi WNW 5.8 mph - N/A   Clear
4:15 AM 68.0 °F - 44.6 °F 43% 30.07 in 10.0 mi Calm Calm - N/A   Clear
4:35 AM 66.2 °F - 44.6 °F 46% 30.07 in 10.0 mi North 5.8 mph - N/A   Clear
4:55 AM 66.2 °F - 44.6 °F 46% 30.07 in 10.0 mi NW 8.1 mph - N/A   Clear
5:15 AM 64.4 °F - 44.6 °F 49% 30.06 in 10.0 mi NW 12.7 mph - N/A   Clear
5:35 AM 64.4 °F - 44.6 °F 49% 30.06 in 10.0 mi NW 6.9 mph - N/A   Clear
5:55 AM 62.6 °F - 44.6 °F 52% 30.07 in 10.0 mi NW 11.5 mph - N/A   Clear
6:15 AM 62.6 °F - 44.6 °F 52% 30.07 in 10.0 mi NW 9.2 mph - N/A   Clear
6:35 AM 62.6 °F - 44.6 °F 52% 30.07 in 10.0 mi NW 10.4 mph - N/A   Clear
6:47 AM 64.4 °F - 46.4 °F 52% 30.08 in 10.0 mi WNW 11.5 mph - N/A   Partly Cloudy
6:55 AM 62.6 °F - 44.6 °F 52% 30.08 in 10.0 mi NW 12.7 mph - N/A   Clear
7:47 AM 64.4 °F - 46.4 °F 52% 30.08 in 10.0 mi WNW 11.5 mph - N/A   Partly Cloudy
8:48 AM 69.8 °F - 46.4 °F 43% 30.09 in 10.0 mi NW 11.5 mph - N/A   Partly Cloudy
9:47 AM 75.2 °F - 46.4 °F 36% 30.09 in 10.0 mi NNW 5.8 mph - N/A   Scattered Clouds
10:47 AM 82.4 °F - 51.8 °F 35% 30.09 in 10.0 mi SE 3.5 mph - N/A   Scattered Clouds
11:47 AM 82.4 °F 81.7 °F 55.4 °F 39% 30.09 in 10.0 mi SSE 9.2 mph - N/A   Scattered Clouds
12:47 PM 84.2 °F 82.8 °F 53.6 °F 35% 30.09 in 10.0 mi SSE 9.2 mph - N/A   Scattered Clouds
1:47 PM 82.4 °F - 51.8 °F 35% 30.10 in 10.0 mi SE 9.2 mph - N/A   Mostly Cloudy
2:47 PM 82.4 °F 82.0 °F 57.2 °F 42% 30.07 in 10.0 mi Calm Calm - N/A   Mostly Cloudy
3:50 PM 84.2 °F 83.5 °F 57.2 °F 40% 30.05 in 10.0 mi SSE 5.8 mph - N/A   Mostly Cloudy
4:05 PM 84.2 °F 83.5 °F 57.2 °F 40% 30.05 in 10.0 mi SE 5.8 mph - N/A Thunderstorm Thunderstorm
4:47 PM 84.2 °F 83.8 °F 59.0 °F 42% 30.05 in 10.0 mi South 4.6 mph - N/A   Mostly Cloudy
5:50 PM 84.2 °F 83.0 °F 55.4 °F 37% 30.03 in 10.0 mi SSE 6.9 mph - N/A   Mostly Cloudy
6:55 PM 84.2 °F - 51.8 °F 33% 30.04 in 7.0 mi East 13.8 mph 20.7 mph N/A Rain Light Rain
7:12 PM 73.4 °F - 60.8 °F 65% 30.04 in 10.0 mi ENE 12.7 mph - N/A Rain , Thunderstorm Light Thunderstorms and Rain
7:47 PM 71.6 °F - 60.8 °F 69% 30.12 in 6.0 mi WSW 20.7 mph 40.3 mph N/A Rain , Thunderstorm Heavy Thunderstorms and Rain
8:50 PM 66.2 °F - 62.6 °F 88% 30.14 in 10.0 mi WNW 16.1 mph - N/A Thunderstorm Thunderstorm
9:47 PM 64.4 °F - 59.0 °F 83% 30.13 in 10.0 mi WNW 11.5 mph - N/A   Mostly Cloudy
10:47 PM 62.6 °F - 57.2 °F 82% 30.15 in 10.0 mi NW 8.1 mph - N/A   Mostly Cloudy
11:15 PM 64.4 °F - 57.2 °F 77% 30.15 in 10.0 mi NW 13.8 mph 19.6 mph N/A   Scattered Clouds
11:35 PM 64.4 °F - 57.2 °F 77% 30.15 in 10.0 mi WNW 10.4 mph - N/A   Mostly Cloudy
11:55 PM 64.4 °F - 57.2 °F 77% 30.15 in 10.0 mi NW 9.2 mph - N/A   Scattered Clouds